EDISTO NM Southeast of Charleston, SC (41004)

Conditions for Friday

Daily
Weekly
Monthly
Marine Data Graph

Current Weather/Wave Observations

Air Temperature: 74° F
Humidity: 71
Wind direction (W Dir): SW (225 - 234 Degrees)
Wind Speed (W Spd): 13.6 kts (15.7 mph)
Wind Gust (W Spd): 15.6 kts (17.9 mph)
Atmospheric Pressure (AP): 29.99 in
Pressure Tendency (PT): +0.04 in
Decreasing or steady, then increasing; or increasing, then increasing more rapidly

Updated: 11:00 PM EDT on May 26, 2017

Marine & Boating Location Search

Enter a coastal zip code for marine weather.

Current Wave Detail Observations

Water Depth: 125 ft
Wave Height: 3.15 ft
Spectral Peak Period: 4.3 sec
Average Wave Period: 3.9 sec
Sampling Interval: 0.6 sec
Wave Record: 2400 sec

Updated: 11:00 PM EDT on May 26, 2017

General Information

Location: 32.501 North -79.099 West
Buoy Type: 3-meter discus buoy
Buoy Hull: 3D58
Payload: ARES payload
Owned by: NDBC
Windspeed: Measured by obtained from anemometer
Sea Surface: Measured by Intake
Note:
Right whales are active off SC from November to April. Speed restrictions of 10 knots apply to vessels 65 feet or greater in specific areas and times along the U.S. East Coast. It is illegal to approach right whales within 500 yards. To learn more about right whales and rules protecting them, go to: http://www.nmfs.noaa.gov/pr/shipstrike.

Weather and Wave Data

Time Temp Humidity Wind Dominant Wave Wind Wave Wave Swell Pressure
  Air
(°F)
Water
(°F)
  Dir Speed
(kts)
Speed
(mph)
Period
(sec)
Height
(ft)
Range
(ft)
Period
(sec)
Height
(ft)
Range
(ft)
Period
(sec)
Height
(ft)
Range
(ft)
Atmo.
(in)
Tend.
(in)
20:10 74 76 46 WSW 19.4 22.4 - - - - - - 29.79 -
20:30 74 76 47 WSW 19.4 22.4 - - - - - - 29.80 -
20:40 74 76 47 WSW 19.4 22.4 - - - - - - 29.81 -
20:50 74 76 47 WSW 19.4 22.4 6 5.91 exactly 5.9 6 4.92 4.10 - 5.74 8 1.64 0.82 - 2.46 29.81 -
21:10 74 76 48 WSW 19.4 22.4 - - - - - - 29.82 -
21:40 74 75 47 WSW 19.4 22.4 - - - - - - 29.84 -
21:50 74 75 48 WSW 19.4 22.4 6 6.23 exactly 6.2 6 4.92 4.10 - 5.74 8 1.64 0.82 - 2.46 29.85 -
22:10 74 75 49 WSW 17.5 20.1 - - - - - - 29.86 -
22:30 74 75 48 West 19.4 22.4 - - - - - - 29.87 -
22:50 74 75 47 West 17.5 20.1 6 5.58 exactly 5.6 6 4.92 4.10 - 5.74 - - - 29.87 -
23:10 74 75 46 West 17.5 20.1 - - - - - - 29.88 -
23:30 74 75 47 West 19.4 22.4 - - - - - - 29.89 -
23:40 74 75 48 West 19.4 22.4 - - - - - - 29.89 -
23:50 74 75 47 West 17.5 20.1 7 5.58 exactly 5.6 7 4.92 4.10 - 5.74 8 1.64 0.82 - 2.46 29.89 -
00:10 74 75 50 WSW 17.5 20.1 - - - - - - 29.90 -
00:20 74 75 49 West 19.4 22.4 - - - - - - 29.90 -
00:30 74 75 47 West 19.4 22.4 - - - - - - 29.90 -
00:40 74 75 49 West 17.5 20.1 - - - - - - 29.90 -
00:50 74 75 49 West 19.4 22.4 6 5.91 exactly 5.9 6 4.92 4.10 - 5.74 8 1.64 0.82 - 2.46 29.90 -
01:00 74 75 49 West 17.5 20.1 - - - - - - 29.90 +0.05
01:10 74 75 49 West 17.5 20.1 - - - - - - 29.90 -
01:20 74 74 49 West 17.5 20.1 - - - - - - 29.90 -
01:30 74 74 49 West 17.5 20.1 - - - - - - 29.90 -
01:40 74 74 48 WSW 17.5 20.1 - - - - - - 29.90 -
01:50 74 74 48 West 17.5 20.1 7 4.92 exactly 4.9 7 4.92 4.10 - 5.74 8 1.64 0.82 - 2.46 29.90 -
02:00 74 74 49 West 17.5 20.1 - - - - - - 29.90 +0.03
02:10 74 74 47 West 17.5 20.1 - - - - - - 29.90 -
02:20 74 74 49 West 17.5 20.1 - - - - - - 29.90 -
02:30 74 74 48 West 17.5 20.1 - - - - - - 29.90 -
02:40 74 74 48 West 17.5 20.1 - - - - - - 29.90 -
02:50 74 74 49 West 17.5 20.1 6 4.92 exactly 4.9 6 4.92 4.10 - 5.74 - - - 29.90 -
03:10 74 74 49 West 17.5 20.1 - - - - - - 29.90 -
03:20 74 74 48 West 17.5 20.1 - - - - - - 29.91 -
03:30 74 74 49 West 17.5 20.1 - - - - - - 29.91 -
03:40 74 74 48 West 17.5 20.1 - - - - - - 29.91 -
03:50 74 74 46 West 19.4 22.4 6 4.59 exactly 4.6 6 4.92 4.10 - 5.74 8 1.64 0.82 - 2.46 29.91 -
04:10 74 74 46 West 17.5 20.1 - - - - - - 29.91 -
04:20 74 74 49 West 15.6 17.9 - - - - - - 29.91 -
04:30 74 74 47 West 17.5 20.1 - - - - - - 29.91 -
04:40 74 74 46 West 17.5 20.1 - - - - - - 29.92 -
04:50 74 74 48 West 17.5 20.1 6 4.59 exactly 4.6 6 4.92 4.10 - 5.74 8 1.64 0.82 - 2.46 29.92 -
05:10 74 74 48 West 15.6 17.9 - - - - - - 29.93 -
05:20 74 74 48 West 17.5 20.1 - - - - - - 29.94 -
05:30 74 74 48 West 15.6 17.9 - - - - - - 29.94 -
05:40 74 74 51 West 15.6 17.9 - - - - - - 29.94 -
05:50 73 74 51 WNW 17.5 20.1 6 4.59 exactly 4.6 6 4.92 4.10 - 5.74 13 1.64 0.82 - 2.46 29.95 -
06:10 73 74 51 WNW 15.6 17.9 - - - - - - 29.96 -
06:20 73 74 54 West 15.6 17.9 - - - - - - 29.96 -
06:30 73 74 53 West 15.6 17.9 - - - - - - 29.96 -
06:40 73 74 54 WNW 15.6 17.9 - - - - - - 29.97 -
06:50 73 74 53 WNW 15.6 17.9 5 4.27 exactly 4.3 5 3.28 2.46 - 4.10 8 1.64 0.82 - 2.46 29.98 -
07:10 72 74 53 WNW 13.6 15.7 - - - - - - 29.99 -
07:20 72 74 54 WNW 13.6 15.7 - - - - - - 29.99 -
07:30 72 74 55 West 13.6 15.7 - - - - - - 29.99 -
07:40 72 74 55 WNW 13.6 15.7 - - - - - - 29.99 -
08:10 72 75 55 WNW 13.6 15.7 - - - - - - 30.01 -
08:20 72 75 55 WNW 13.6 15.7 - - - - - - 30.01 -
08:30 72 75 55 WNW 13.6 15.7 - - - - - - 30.01 -
08:40 72 75 53 WNW 13.6 15.7 - - - - - - 30.01 -
08:50 72 75 52 WNW 13.6 15.7 5 3.94 exactly 3.9 5 3.28 2.46 - 4.10 8 1.64 0.82 - 2.46 30.01 -
09:10 72 75 52 WNW 11.7 13.4 - - - - - - 30.01 -
09:20 72 75 53 WNW 11.7 13.4 - - - - - - 30.01 -
09:30 72 75 52 WNW 11.7 13.4 - - - - - - 30.01 -
09:40 72 75 51 WNW 11.7 13.4 - - - - - - 30.01 -
10:10 72 75 54 West 9.7 11.2 - - - - - - 30.01 -
10:30 72 74 53 West 9.7 11.2 - - - - - - 30.01 -
10:40 72 74 53 West 9.7 11.2 - - - - - - 30.01 -
10:50 72 74 54 West 9.7 11.2 5 3.28 exactly 3.3 4 1.64 0.82 - 2.46 5 1.64 0.82 - 2.46 30.01 -
11:10 72 74 55 West 9.7 11.2 - - - - - - 30.01 -
11:30 72 74 55 West 11.7 13.4 - - - - - - 30.01 -
11:40 72 74 57 West 9.7 11.2 - - - - - - 30.02 -
11:50 72 74 55 West 11.7 13.4 7 2.95 exactly 3.0 5 3.28 2.46 - 4.10 7 1.64 0.82 - 2.46 30.02 -
12:20 72 74 55 West 11.7 13.4 - - - - - - 30.01 -
12:30 72 74 54 West 11.7 13.4 - - - - - - 30.01 -
12:40 72 74 54 West 11.7 13.4 - - - - - - 30.01 -
12:50 72 74 54 West 11.7 13.4 5 2.95 exactly 3.0 5 3.28 2.46 - 4.10 7 1.64 0.82 - 2.46 30.01 -
13:10 72 74 55 West 11.7 13.4 - - - - - - 30.01 -
13:30 73 74 51 WSW 13.6 15.7 - - - - - - 30.01 -
14:00 73 74 50 WSW 13.6 15.7 - - - - - - 30.00 -0.01
14:10 73 74 51 WSW 13.6 15.7 - - - - - - 30.00 -
14:20 73 74 50 WSW 13.6 15.7 - - - - - - 29.99 -
14:30 73 74 50 WSW 15.6 17.9 - - - - - - 29.99 -
14:40 73 74 51 WSW 13.6 15.7 - - - - - - 29.99 -
15:00 73 74 49 SW 15.6 17.9 - - - - - - 29.99 -0.02
15:10 73 74 50 WSW 15.6 17.9 - - - - - - 29.99 -
15:20 73 74 50 WSW 15.6 17.9 - - - - - - 29.99 -
15:40 74 74 48 WSW 15.6 17.9 - - - - - - 29.98 -
15:50 74 74 49 WSW 15.6 17.9 4 2.95 exactly 3.0 4 3.28 2.46 - 4.10 8 1.64 0.82 - 2.46 29.98 -
16:10 74
-
WSW 15.6 17.9 - - - - - - 29.97 -
16:20 74 74 49 SW 17.5 20.1 - - - - - - 29.96 -
16:30 74 74 50 WSW 15.6 17.9 - - - - - - 29.96 -
16:40 74 74 50 SW 15.6 17.9 - - - - - - 29.96 -
16:50 74 75 50 WSW 17.5 20.1 4 2.95 exactly 3.0 4 3.28 2.46 - 4.10 8 1.64 0.82 - 2.46 29.96 -
17:10 74 75 53 WSW 15.6 17.9 - - - - - - 29.96 -
17:20 74 75 53 WSW 15.6 17.9 - - - - - - 29.96 -
17:30 74 75 54 WSW 15.6 17.9 - - - - - - 29.96 -
17:40 74 75 54 WSW 17.5 20.1 - - - - - - 29.96 -
17:50 74 75 55 SW 15.6 17.9 4 2.95 exactly 3.0 4 3.28 2.46 - 4.10 8 1.64 0.82 - 2.46 29.96 -
18:10 74 75 56 SW 15.6 17.9 - - - - - - 29.96 -
18:20 74 75 56 SW 15.6 17.9 - - - - - - 29.96 -
18:30 74 75 57 SW 15.6 17.9 - - - - - - 29.96 -
18:40 74 75 57 SW 15.6 17.9 - - - - - - 29.96 -
18:50 74 75 58 SW 15.6 17.9 4 2.95 exactly 3.0 4 3.28 2.46 - 4.10 8 1.64 0.82 - 2.46 29.95 -
19:00 74 75 59 SW 15.6 17.9 - - - - - - 29.95 -0.02
19:10 74 75 59 SW 15.6 17.9 - - - - - - 29.95 -
19:30 74 75 60 SW 15.6 17.9 - - - - - - 29.96 -
19:50 74 75 61 SW 15.6 17.9 4 2.95 exactly 3.0 4 3.28 2.46 - 4.10 8 1.64 0.82 - 2.46 29.96 -
20:20 74 75 62 SW 15.6 17.9 - - - - - - 29.96 -
20:30 74 74 62 SW 15.6 17.9 - - - - - - 29.96 -
20:40 74 74 63 SW 15.6 17.9 - - - - - - 29.96 -
20:50 74 75 65 SW 13.6 15.7 4 3.28 exactly 3.3 4 3.28 2.46 - 4.10 8 1.64 0.82 - 2.46 29.96 -
21:00 74 75 63 SW 15.6 17.9 - - - - - - 29.96 -
21:10 74 75 63 SW 15.6 17.9 - - - - - - 29.96 -
21:20 75 75 63 SW 13.6 15.7 - - - - - - 29.97 -
21:30 75 75 64 SW 13.6 15.7 - - - - - - 29.97 -
21:40 75 75 64 SW 13.6 15.7 - - - - - - 29.98 -
21:50 75 75 65 SW 13.6 15.7 4 2.95 exactly 3.0 4 3.28 2.46 - 4.10 8 1.64 0.82 - 2.46 29.98 -
22:10 74 74 68 SW 13.6 15.7 - - - - - - 29.99 -
22:20 74 74 69 SW 13.6 15.7 - - - - - - 29.99 -
22:30 74 74 70 SW 13.6 15.7 - - - - - - 29.99 -
22:40 74 74 70 SW 13.6 15.7 - - - - - - 29.99 -
22:50 74 74 70 SW 13.6 15.7 4 3.28 exactly 3.3 4 3.28 2.46 - 4.10 8 1.64 0.82 - 2.46 29.99 -

Detailed Wave Spectra

Time Water Depth Wave Height Spectral Peak Period Average Wave Period Sampling Interval Wave Record
20:00 125 ft 7.41 ft 6.3 sec 5.2 sec 0.6 sec 2400 sec
21:00 125 ft 5.77 ft 6.3 sec 4.8 sec 0.6 sec 2400 sec
22:00 125 ft 6.10 ft 6.3 sec 4.9 sec 0.6 sec 2400 sec
23:00 125 ft 5.54 ft 6.3 sec 4.8 sec 0.6 sec 2400 sec
00:00 125 ft 5.51 ft 6.7 sec 4.7 sec 0.6 sec 2400 sec
03:00 125 ft 4.82 ft 5.9 sec 4.6 sec 0.6 sec 2400 sec
04:00 125 ft 4.53 ft 5.6 sec 4.4 sec 0.6 sec 2400 sec
05:00 125 ft 4.49 ft 5.9 sec 4.5 sec 0.6 sec 2400 sec
06:00 125 ft 4.49 ft 5.9 sec 4.6 sec 0.6 sec 2400 sec
07:00 125 ft 4.23 ft 5.3 sec 4.4 sec 0.6 sec 2400 sec
08:00 125 ft 4.00 ft 4.5 sec 4.3 sec 0.6 sec 2400 sec
09:00 125 ft 4.00 ft 5.0 sec 4.3 sec 0.6 sec 2400 sec
10:00 125 ft 3.58 ft 5.3 sec 4.1 sec 0.6 sec 2400 sec
11:00 125 ft 3.22 ft 5.0 sec 4.3 sec 0.6 sec 2400 sec
12:00 125 ft 3.08 ft 7.1 sec 4.2 sec 0.6 sec 2400 sec
13:00 125 ft 2.92 ft 4.8 sec 4.2 sec 0.6 sec 2400 sec
16:00 125 ft 2.99 ft 4.3 sec 3.8 sec 0.6 sec 2400 sec
17:00 125 ft 2.85 ft 4.2 sec 3.8 sec 0.6 sec 2400 sec
18:00 125 ft 2.95 ft 4.2 sec 3.8 sec 0.6 sec 2400 sec
20:00 125 ft 3.02 ft 4.3 sec 3.8 sec 0.6 sec 2400 sec
22:00 125 ft 3.12 ft 4.2 sec 3.9 sec 0.6 sec 2400 sec
23:00 125 ft 3.15 ft 4.3 sec 3.9 sec 0.6 sec 2400 sec